KK4F Weather Reports


time (UTC)temp
C
wind
direction
speed
KPH
gust
KPH
rain 1hr
cm
rain 24hr
cm
rain mn
cm
humidity
%
barometer
mb
20260906101530 20 336 0.0 0.0 0.00 1.40 0.03 99 1010.9
20260906101025 20 336 0.0 0.0 0.00 1.40 0.03 99 1010.9
20260906100525 20 336 0.0 0.0 0.00 1.40 0.03 99 1010.8
20260906100024 20 336 0.0 0.0 0.00 1.40 0.03 99 1010.9
20260906095524 20 336 0.0 1.6 0.00 1.40 0.03 99 1010.9
20260906095024 20 336 0.0 1.6 0.00 1.40 0.03 99 1010.9
20260906094524 20 336 0.0 0.0 0.00 1.40 0.03 99 1010.9
20260906094023 20 336 0.0 0.0 0.00 1.40 0.03 99 1010.8
20260906093525 20 336 0.0 0.0 0.00 1.40 0.03 99 1010.9
20260906093024 20 336 0.0 0.0 0.00 1.40 0.03 99 1010.9
20260906092523 20 336 0.0 0.0 0.00 1.40 0.03 99 1010.8
20260906092025 20 336 0.0 0.0 0.00 1.40 0.03 99 1010.8
20260906091522 20 336 0.0 0.0 0.00 1.40 0.03 99 1010.8
20260906091022 20 336 0.0 0.0 0.00 1.40 0.03 99 1010.8
20260906090522 20 336 0.0 0.0 0.00 1.40 0.03 99 1010.8
20260906090026 20 336 0.0 0.0 0.00 1.40 0.03 99 1010.7
20260906085520 20 336 0.0 0.0 0.00 1.40 0.03 99 1010.7
20260906085022 20 336 0.0 0.0 0.00 1.40 0.03 99 1010.6
20260906084520 20 336 0.0 0.0 0.00 1.40 0.03 99 1010.6
20260906084020 20 336 0.0 0.0 0.00 1.40 0.03 99 1010.6
20260906083519 20 336 0.0 1.6 0.00 1.40 0.03 99 1010.6
20260906083020 20 336 0.0 3.2 0.00 1.40 0.03 99 1010.6
20260906082523 20 332 0.0 3.2 0.00 1.40 0.03 99 1010.5
20260906082019 20 317 0.0 0.0 0.00 1.40 0.03 99 1010.5
20260906081518 20 317 0.0 0.0 0.00 1.40 0.03 99 1010.5
20260906081018 20 317 0.0 0.0 0.00 1.40 0.03 99 1010.5
20260906080519 20 317 0.0 0.0 0.00 1.40 0.03 99 1010.6
20260906080017 20 317 0.0 0.0 0.00 1.40 0.03 99 1010.6
20260906075516 20 317 0.0 0.0 0.00 1.40 0.03 99 1010.6
20260906075015 20 317 0.0 0.0 0.00 1.40 0.03 99 1010.6
20260906074516 20 317 0.0 0.0 0.00 1.40 0.03 99 1010.7
20260906074019 20 317 0.0 0.0 0.00 1.40 0.03 99 1010.7
20260906073514 20 317 0.0 0.0 0.00 1.40 0.03 98 1010.6
20260906073021 20 317 0.0 0.0 0.00 1.40 0.03 99 1010.6
20260906072515 21 317 0.0 0.0 0.00 1.40 0.03 99 1010.7
20260906072015 21 317 0.0 0.0 0.00 1.40 0.03 99 1010.7
20260906071513 21 317 0.0 0.0 0.00 1.40 0.03 99 1010.7
20260906071013 20 317 0.0 0.0 0.00 1.40 0.03 99 1010.8
20260906070512 20 317 0.0 0.0 0.00 1.40 0.03 99 1010.8
20260906070012 20 317 0.0 0.0 0.00 1.40 0.03 99 1010.7
20260906065511 21 317 0.0 0.0 0.03 1.40 0.03 99 1010.7
20260906065011 21 317 0.0 0.0 0.03 1.40 0.03 99 1010.8
20260906064510 21 317 0.0 0.0 0.03 1.40 0.03 99 1010.8
20260906064010 21 317 0.0 0.0 0.03 1.40 0.03 99 1010.8
20260906063509 21 317 0.0 0.0 0.03 1.40 0.03 98 1010.8
20260906063009 21 317 0.0 0.0 0.03 1.40 0.03 99 1011.0
20260906062508 21 317 0.0 0.0 0.03 1.40 0.03 99 1011.1
20260906062008 21 317 0.0 0.0 0.03 1.40 0.03 98 1011.2
20260906061508 21 317 0.0 0.0 0.03 1.40 0.03 98 1011.2
20260906061007 21 317 0.0 0.0 0.03 1.40 0.03 98 1011.1
20260906060506 21 317 0.0 0.0 0.03 1.40 0.03 99 1011.2
20260906060009 21 315 0.0 0.0 0.03 1.40 0.03 98 1011.4
20260906055505 21 314 0.0 0.0 0.00 1.37 0.00 99 1011.3
20260906055007 21 314 0.0 0.0 0.00 1.37 0.00 98 1011.4
20260906054504 21 314 0.0 0.0 0.00 1.37 0.00 98 1011.4
20260906054004 21 314 0.0 0.0 0.00 1.37 0.00 98 1011.6
20260906053504 21 314 0.0 0.0 0.00 1.37 0.00 98 1011.8
20260906053003 21 314 0.0 0.0 0.00 1.37 0.00 98 1011.8
20260906052503 21 314 0.0 0.0 0.00 1.37 0.00 98 1011.7
20260906052001 21 314 0.0 0.0 0.00 1.37 0.00 98 1011.9
20260906051600 21 314 0.0 0.0 0.00 1.37 0.00 98 1012.0
20260906051102 21 314 0.0 0.0 0.00 1.37 0.00 98 1011.9
20260906050557 21 314 0.0 0.0 0.00 1.37 0.00 98 1011.9
20260906050120 21 314 0.0 0.0 0.00 1.37 0.00 99 1011.8
20260906045558 21 313 0.0 0.0 0.00 1.37 0.00 98 1012.0
20260906045055 21 314 0.0 0.0 0.00 1.37 0.00 98 1011.9
20260906044555 21 314 0.0 0.0 0.00 1.37 0.00 98 1011.9
20260906044055 21 314 0.0 0.0 0.00 1.37 0.00 98 1011.9
20260906043554 21 314 0.0 0.0 0.00 1.37 0.00 98 1011.7
20260906043057 21 314 0.0 0.0 0.00 1.37 0.00 98 1011.7
20260906042554 21 314 0.0 0.0 0.00 1.37 0.00 98 1011.7
20260906042052 21 314 0.0 0.0 0.00 1.37 0.00 98 1011.7
20260906041552 21 314 0.0 0.0 0.00 1.37 0.00 98 1011.6
20260906041050 21 314 0.0 0.0 0.00 1.37 0.00 98 1011.6
20260906040548 21 313 0.0 0.0 0.00 1.37 0.00 98 1011.5
20260906040047 21 314 0.0 0.0 0.00 1.37 0.00 98 1011.6
20260906035548 21 313 0.0 0.0 0.00 1.37 1.37 97 1011.6
20260906035047 21 314 0.0 0.0 0.00 1.37 1.37 97 1011.7
20260906034546 21 313 0.0 0.0 0.00 1.37 1.37 97 1011.8
20260906034045 21 313 0.0 0.0 0.00 1.37 1.37 97 1011.9
20260906033545 21 313 0.0 0.0 0.00 1.37 1.37 97 1012.0
20260906033055 21 313 0.0 0.0 0.00 1.37 1.37 97 1012.0
20260906032549 22 313 0.0 0.0 0.00 1.37 1.37 97 1011.9
20260906032044 22 313 0.0 0.0 0.00 1.37 1.37 97 1011.8
20260906031546 22 313 0.0 0.0 0.00 1.37 1.37 97 1011.9
20260906031044 22 313 0.0 0.0 0.00 1.37 1.37 97 1012.0
20260906030544 22 313 0.0 0.0 0.00 1.37 1.37 97 1012.0
20260906030044 22 313 0.0 0.0 0.00 1.37 1.37 96 1011.9
20260906025543 22 313 0.0 0.0 0.00 1.37 1.37 96 1012.0
20260906025044 22 313 0.0 0.0 0.00 1.37 1.37 97 1012.1
20260906024544 22 313 0.0 0.0 0.00 1.37 1.37 97 1012.1
20260906024043 22 313 0.0 0.0 0.00 1.37 1.37 97 1012.0
20260906023543 22 313 0.0 0.0 0.00 1.37 1.37 96 1011.8
20260906023042 22 313 0.0 0.0 0.00 1.37 1.37 96 1011.8
20260906022545 22 313 0.0 0.0 0.00 1.37 1.37 97 1011.7
20260906022042 22 313 0.0 0.0 0.00 1.37 1.37 97 1011.7
20260906021549 22 313 0.0 0.0 0.00 1.37 1.37 96 1011.6
20260906021041 22 313 0.0 0.0 0.00 1.37 1.37 96 1011.4
20260906020544 22 313 0.0 0.0 0.00 1.37 1.37 97 1011.4
20260906020049 22 313 0.0 0.0 0.00 1.37 1.37 96 1011.3
20260906015540 22 313 0.0 0.0 0.00 1.37 1.37 96 1011.1
20260906015039 22 313 0.0 0.0 0.00 1.37 1.37 96 1011.0
20260906014550 22 313 0.0 0.0 0.00 1.37 1.37 96 1010.8
20260906014039 22 313 0.0 0.0 0.00 1.37 1.37 97 1010.8
20260906013539 22 313 0.0 0.0 0.00 1.37 1.37 97 1010.9
20260906013040 22 313 0.0 0.0 0.00 1.37 1.37 96 1010.9
20260906012539 22 312 0.0 0.0 0.00 1.37 1.37 96 1010.8
20260906012039 22 312 0.0 0.0 0.00 1.37 1.37 96 1010.8
20260906011539 22 312 0.0 0.0 0.00 1.37 1.37 96 1010.8
20260906011039 22 312 0.0 0.0 0.00 1.37 1.37 96 1010.7
20260906010538 22 311 0.0 0.0 0.00 1.37 1.37 96 1010.8
20260906010041 22 311 0.0 0.0 0.00 1.37 1.37 96 1010.8
20260906005539 22 311 0.0 0.0 0.00 1.37 1.37 96 1010.8
20260906005041 22 307 0.0 0.0 0.00 1.37 1.37 96 1010.7
20260906004541 22 307 0.0 0.0 0.00 1.37 1.37 96 1010.7
20260906004037 22 279 0.0 0.0 0.00 1.37 1.37 95 1010.6
20260906003537 22 246 0.0 0.0 0.00 1.37 1.37 96 1010.5
20260906003037 22 246 0.0 0.0 0.00 1.37 1.37 96 1010.6
20260906002538 22 246 0.0 0.0 0.00 1.37 1.37 95 1010.6
20260906002038 22 246 0.0 0.0 0.00 1.37 1.37 95 1010.7
20260906001536 22 246 0.0 0.0 0.00 1.37 1.37 94 1010.6
20260906001036 22 244 0.0 0.0 0.00 1.37 1.37 94 1010.8
20260906000536 22 244 0.0 0.0 0.00 1.37 1.37 93 1010.9
20260906000041 22 244 0.0 0.0 0.00 1.37 1.37 93 1011.0
20260905235536 22 232 0.0 0.0 0.00 1.37 1.37 94 1010.8
20260905235036 22 232 0.0 0.0 0.00 1.37 1.37 93 1010.9
20260905234535 22 232 0.0 0.0 0.00 1.37 1.37 93 1011.0
20260905234035 22 234 0.0 0.0 0.00 1.37 1.37 92 1011.1
20260905233537 22 232 0.0 3.2 0.00 1.37 1.37 92 1011.2
20260905233040 23 233 0.0 4.8 0.00 1.37 1.37 92 1011.2
20260905232535 23 231 0.0 6.4 0.00 1.37 1.37 91 1011.2
20260905232035 23 232 1.6 8.0 0.00 1.37 1.37 90 1011.4
20260905231541 23 216 1.6 8.0 0.00 1.37 1.37 90 1011.5
20260905231034 23 226 0.0 11.3 0.00 1.37 1.37 92 1011.4
20260905230537 23 196 4.8 11.3 0.00 1.37 1.37 91 1011.5
20260905230039 23 217 1.6 9.7 0.00 1.37 1.37 91 1011.5
20260905225538 23 170 0.0 9.7 0.00 1.37 1.37 92 1011.6
20260905225033 23 209 1.6 14.5 0.00 1.37 1.37 93 1011.4
20260905224534 23 213 0.0 16.1 0.05 1.37 1.37 94 1011.2
20260905224034 23 151 6.4 16.1 0.20 1.37 1.37 94 1011.2
20260905223534 23 155 4.8 11.3 0.41 1.37 1.37 95 1011.6
20260905223035 23 164 0.0 6.4 0.61 1.37 1.37 96 1011.5
20260905222537 23 244 0.0 0.0 0.86 1.37 1.37 97 1011.1
20260905222033 22 244 0.0 0.0 1.19 1.37 1.37 96 1011.1
20260905221536 22 213 0.0 8.0 1.37 1.37 1.37 96 1011.7
20260905221033 22 115 0.0 8.0 1.37 1.37 1.37 96 1011.4
20260905220531 22 290 0.0 6.4 1.37 1.37 1.37 96 1011.0
20260905220032 22 290 3.2 6.4 1.37 1.37 1.37 96 1011.1
20260905215531 22 71 0.0 6.4 1.37 1.37 1.37 94 1011.0
20260905215030 22 321 0.0 0.0 1.37 1.37 1.37 93 1010.1
20260905214534 22 320 0.0 6.4 1.30 1.30 1.30 93 1009.7
20260905214029 22 321 0.0 12.9 1.14 1.14 1.14 92 1009.8
20260905213528 23 254 3.2 12.9 0.94 0.94 0.94 90 1010.1
20260905213026 23 302 1.6 9.7 0.71 0.71 0.71 88 1010.8
20260905212525 25 46 4.8 30.6 0.48 0.48 0.48 83 1010.3
20260905212024 31 111 19.3 30.6 0.13 0.13 0.13 65 1010.0
20260905211531 35 31 3.2 8.0 0.00 0.00 0.00 58 1009.8
20260905211024 36 292 0.0 0.0 0.00 0.00 0.00 56 1009.4
20260905210523 36 289 0.0 0.0 0.00 0.00 0.00 55 1009.1
20260905210023 37 288 0.0 0.0 0.00 0.00 0.00 54 1009.2
20260905205524 37 252 0.0 4.8 0.00 0.00 0.00 52 1009.3
20260905205022 38 211 0.0 6.4 0.00 0.00 0.00 51 1009.1
20260905204521 38 273 1.6 6.4 0.00 0.00 0.00 51 1009.3
20260905204020 38 267 1.6 9.7 0.00 0.00 0.00 52 1009.3
20260905203520 38 192 3.2 9.7 0.00 0.00 0.00 51 1009.2
20260905203018 37 238 1.6 9.7 0.00 0.00 0.00 52 1009.1
20260905202515 38 249 1.6 12.9 0.00 0.00 0.00 51 1009.1
20260905202014 38 233 1.6 12.9 0.00 0.00 0.00 52 1009.0
20260905201513 37 252 1.6 12.9 0.00 0.00 0.00 53 1009.1
20260905201012 37 199 6.4 12.9 0.00 0.00 0.00 53 1009.1
20260905200516 37 225 3.2 11.3 0.00 0.00 0.00 55 1009.1
20260905200014 37 281 1.6 8.0 0.00 0.00 0.00 55 1009.2
20260905195511 37 236 3.2 9.7 0.00 0.00 0.00 54 1009.4
20260905195010 37 231 3.2 9.7 0.00 0.00 0.00 56 1009.3
20260905194510 36 130 1.6 12.9 0.00 0.00 0.00 55 1009.4
20260905194008 36 163 6.4 16.1 0.00 0.00 0.00 55 1009.4
20260905193507 37 189 9.7 16.1 0.00 0.00 0.00 53 1009.6
20260905193008 37 172 3.2 11.3 0.00 0.00 0.00 53 1009.6
20260905192506 37 194 3.2 11.3 0.00 0.00 0.00 54 1009.5
20260905192005 37 211 0.0 11.3 0.00 0.00 0.00 56 1009.7
20260905191504 37 120 6.4 11.3 0.00 0.00 0.00 55 1009.8
20260905191006 37 242 3.2 14.5 0.00 0.00 0.00 56 1009.9
20260905190505 36 197 3.2 14.5 0.00 0.00 0.00 56 1009.9
20260905190002 36 219 3.2 12.9 0.00 0.00 0.00 57 1010.0
20260905185600 36 155 3.2 12.9 0.00 0.00 0.00 56 1010.1
20260905185059 36 217 6.4 12.9 0.00 0.00 0.00 56 1010.4
20260905184602 36 265 4.8 12.9 0.00 0.00 0.00 57 1010.5
20260905184057 36 212 4.8 12.9 0.00 0.00 0.00 57 1010.6
20260905183556 36 229 1.6 12.9 0.00 0.00 0.00 58 1010.8
20260905183058 36 178 6.4 12.9 0.00 0.00 0.00 57 1010.9
20260905182554 36 115 0.0 9.7 0.00 0.00 0.00 55 1011.0
20260905182054 36 257 3.2 11.3 0.00 0.00 0.00 56 1011.1
20260905181554 37 290 1.6 11.3 0.00 0.00 0.00 55 1011.2
20260905181055 36 231 0.0 12.9 0.00 0.00 0.00 58 1011.3
20260905180551 36 182 3.2 9.7 0.00 0.00 0.00 57 1011.3
20260905180050 36 350 1.6 6.4 0.00 0.00 0.00 58 1011.4
20260905175552 36 240 1.6 11.3 0.00 0.00 0.00 58 1011.4
20260905175049 36 186 6.4 12.9 0.00 0.00 0.00 57 1011.5
20260905174549 36 229 3.2 12.9 0.00 0.00 0.00 57 1011.5
20260905174048 36 327 3.2 6.4 0.00 0.00 0.00 58 1011.6
20260905173546 36 330 0.0 6.4 0.00 0.00 0.00 57 1011.6
20260905173045 36 323 0.0 11.3 0.00 0.00 0.00 57 1011.8
20260905172546 36 269 3.2 11.3 0.00 0.00 0.00 59 1011.8
20260905172044 35 196 3.2 8.0 0.00 0.00 0.00 58 1011.9
20260905171545 35 343 1.6 14.5 0.00 0.00 0.00 56 1012.0
20260905171043 36 205 4.8 14.5 0.00 0.00 0.00 57 1012.1
20260905170540 35 247 3.2 12.9 0.00 0.00 0.00 58 1012.3
20260905170040 35 194 4.8 12.9 0.00 0.00 0.00 59 1012.2
20260905165539 35 339 0.0 11.3 0.00 0.00 0.00 61 1012.2
20260905165036 35 170 3.2 9.7 0.00 0.00 0.00 62 1012.4
20260905164535 35 307 0.0 9.7 0.00 0.00 0.00 63 1012.4
20260905164034 34 10 0.0 9.7 0.00 0.00 0.00 61 1012.6
20260905163532 34 271 1.6 9.7 0.00 0.00 0.00 63 1012.6
20260905163031 34 223 0.0 11.3 0.00 0.00 0.00 64 1012.7
20260905162529 34 215 3.2 11.3 0.00 0.00 0.00 64 1012.8
20260905162029 34 212 3.2 11.3 0.00 0.00 0.00 63 1012.9
20260905161527 33 317 0.0 12.9 0.00 0.00 0.00 65 1012.9
20260905161024 33 257 4.8 14.5 0.00 0.00 0.00 66 1012.8
20260905160523 33 182 1.6 11.3 0.00 0.00 0.00 68 1012.9
20260905160027 33 215 3.2 11.3 0.00 0.00 0.00 67 1013.0
20260905155525 33 213 6.4 11.3 0.00 0.00 0.00 67 1013.0
20260905155022 33 224 3.2 12.9 0.00 0.00 0.00 68 1013.1
20260905154516 33 277 3.2 12.9 0.00 0.00 0.00 69 1013.2
20260905154017 33 250 0.0 8.0 0.00 0.00 0.00 69 1013.2
20260905153515 33 297 1.6 12.9 0.00 0.00 0.00 70 1013.3
20260905153013 32 216 3.2 12.9 0.00 0.00 0.00 69 1013.2
20260905152512 32 262 3.2 9.7 0.00 0.00 0.00 70 1013.4
20260905152011 32 346 1.6 12.9 0.00 0.00 0.00 71 1013.4
20260905151510 32 245 3.2 11.3 0.00 0.00 0.00 71 1013.5
20260905151010 32 286 0.0 6.4 0.00 0.00 0.00 72 1013.4
20260905150507 32 269 0.0 9.7 0.00 0.00 0.00 74 1013.5
20260905150007 31 213 0.0 6.4 0.00 0.00 0.00 74 1013.6
20260905145505 31 142 0.0 6.4 0.00 0.00 0.00 75 1013.6
20260905145007 31 252 1.6 6.4 0.00 0.00 0.00 76 1013.7
20260905144504 31 205 0.0 0.0 0.00 0.00 0.00 76 1013.7
20260905144002 31 221 0.0 4.8 0.00 0.00 0.00 77 1013.7
20260905143501 30 227 0.0 6.4 0.00 0.00 0.00 78 1013.7
20260905143002 30 252 3.2 8.0 0.00 0.00 0.00 78 1013.8
20260905142600 30 215 3.2 8.0 0.00 0.00 0.00 79 1013.8
20260905142059 30 289 0.0 11.3 0.00 0.00 0.00 79 1013.9
20260905141558 30 259 1.6 11.3 0.00 0.00 0.00 79 1013.9
20260905141056 30 206 3.2 9.7 0.00 0.00 0.00 80 1014.0
20260905140555 29 273 0.0 9.7 0.00 0.00 0.00 81 1014.0
20260905140054 29 217 3.2 9.7 0.00 0.00 0.00 81 1013.9
20260905135556 29 247 0.0 14.5 0.00 0.00 0.00 81 1014.0
20260905135053 29 213 6.4 14.5 0.00 0.00 0.00 81 1014.0
20260905134552 28 207 3.2 9.7 0.00 0.00 0.00 82 1014.0
20260905134051 28 251 0.0 8.0 0.00 0.00 0.00 82 1014.1
20260905133549 28 258 3.2 11.3 0.00 0.00 0.00 83 1014.0
20260905133048 28 241 4.8 14.5 0.00 0.00 0.00 84 1014.0
20260905132547 28 233 3.2 14.5 0.00 0.00 0.00 85 1014.0
20260905132046 27 251 0.0 6.4 0.00 0.00 0.00 86 1014.2
20260905131545 27 240 1.6 6.4 0.00 0.00 0.00 87 1014.1
20260905131046 27 277 1.6 6.4 0.00 0.00 0.00 88 1014.2
20260905130544 27 259 0.0 14.5 0.00 0.00 0.00 90 1014.3
20260905130043 26 273 1.6 14.5 0.00 0.00 0.00 90 1014.2
20260905125542 26 264 1.6 14.5 0.00 0.00 0.00 91 1014.2
20260905125145 26 238 4.8 14.5 0.00 0.00 0.00 91 1014.2
20260905124541 26 240 1.6 16.1 0.00 0.00 0.00 93 1014.2
20260905124040 25 235 3.2 9.7 0.00 0.00 0.00 93 1014.2
20260905123541 25 254 3.2 9.7 0.00 0.00 0.00 94 1014.2
20260905123040 25 243 0.0 11.3 0.00 0.00 0.00 95 1014.2
20260905122541 25 232 1.6 11.3 0.00 0.00 0.00 95 1014.1
20260905122039 25 238 3.2 11.3 0.00 0.00 0.00 95 1014.1
20260905121540 25 232 3.2 11.3 0.00 0.00 0.00 96 1014.0
20260905121042 25 258 0.0 11.3 0.00 0.00 0.00 96 1014.0
20260905120539 24 272 1.6 11.3 0.00 0.00 0.00 96 1014.0
20260905120038 24 259 1.6 8.0 0.00 0.00 0.00 97 1014.0
20260905115538 24 250 3.2 8.0 0.00 0.00 0.00 97 1013.9
20260905115038 24 255 0.0 4.8 0.00 0.00 0.00 97 1013.9
20260905114538 24 224 0.0 1.6 0.00 0.00 0.00 97 1013.9
20260905114039 24 224 0.0 0.0 0.00 0.00 0.00 97 1013.8
20260905113540 24 224 0.0 3.2 0.00 0.00 0.00 97 1013.8
20260905113038 24 222 0.0 4.8 0.00 0.00 0.00 97 1013.7
20260905112538 23 237 0.0 6.4 0.00 0.00 0.00 97 1013.6
20260905112040 23 241 0.0 0.0 0.00 0.00 0.00 97 1013.6
20260905111537 23 240 0.0 0.0 0.00 0.00 0.00 97 1013.6
20260905111037 24 239 0.0 0.0 0.00 0.00 0.00 97 1013.5
20260905110538 24 240 0.0 0.0 0.00 0.00 0.00 97 1013.6
20260905110037 24 244 0.0 0.0 0.00 0.00 0.00 97 1013.6
20260905105538 24 244 0.0 0.0 0.00 0.00 0.00 97 1013.3
20260905105037 24 244 0.0 0.0 0.00 0.00 0.00 96 1013.3
20260905104536 24 244 0.0 0.0 0.00 0.00 0.00 96 1013.2
20260905104035 24 244 0.0 0.0 0.00 0.00 0.00 96 1013.3
20260905103535 24 244 0.0 0.0 0.00 0.00 0.00 96 1013.4
20260905103043 24 261 0.0 0.0 0.00 0.00 0.00 96 1013.3
20260905102535 24 257 0.0 0.0 0.00 0.00 0.00 96 1013.3
20260905102034 24 257 0.0 0.0 0.00 0.00 0.00 96 1013.2